Regional Weather Roundup
Issued by NWS State College, PA

Home | Current Version | Previous Version | Graphics & Text | Print | Product List | Glossary On
Versions: 1 2 3 4 5 6 7 8 9 10 11 12 13 14 15 16 17 18 19 20 21 22 23 24 25 26 27 28 29 30 31 32 33 34 35 36 37 38 39 40 41 42 43 44 45 46 47 48 49 50
000
ASUS41 KCTP 200710
RWRCTP
PHLRWRCTP ALL

REGIONAL WEATHER ROUNDUP
NATIONAL WEATHER SERVICE STATE COLLEGE PA
300 AM EDT WED SEP 20 2017

Note: "fair" indicates few or no clouds below 12,000 feet with no
significant weather and/or obstructions to visibility.

* = STATION THAT DOES NOT REPORT PRECIPITATION /E.G. RAIN...SNOW...ETC/
    THUNDER OR FOG.

PAZ002>004-007>009-013>016-020>023-029>032-200800-
WESTERN PENNSYLVANIA

CITY           SKY/WX    TMP DP  RH WIND       PRES   REMARKS
ERIE           PTCLDY    65  62  90 CALM      29.98S
MEADVILLE      PTCLDY    62  62 100 CALM      30.00F FOG
FRANKLIN*      FOG       59  58  96 NE3       30.02S VSB<1/4
NEW CASTLE     FAIR      62  62 100 CALM      30.00S FOG
BEAVER COUNTY  NOT AVBL
BUTLER*        CLEAR     57  57 100 CALM      30.00F FOG
PITTSBURGH INT MOCLDY    65  63  93 E5        29.98F
PITTSBURGH     CLEAR     66  61  84 E3        29.98F
INDIANA*       CLEAR     59  59 100 E3        30.04S
LATROBE        CLEAR     57  57 100 CALM      30.01S FOG
WASHINGTON CO* PTCLDY    61  59  94 CALM      29.99S
$$

PAZ004>006-010>012-017>019-024>028-033>037-041-042-045-046-049>053-200800-
CENTRAL PENNSYLVANIA

CITY           SKY/WX    TMP DP  RH WIND       PRES   REMARKS
BRADFORD       CLEAR     53  53 100 CALM      30.05S FOG
DUBOIS         FOG       57  55  93 NE3       30.02F VSB 1/4
CLEARFIELD     FOG       56  56 100 CALM      30.03S VSB<1/4
JOHNSTOWN      CLEAR     60  59  96 CALM      30.04S
ALTOONA        FOG       57  57 100 CALM      30.02S VSB 1/4
STATE COLLEGE  MOCLDY    57  57 100 CALM      30.00S FOG
WILLIAMSPORT   CLOUDY    62  60  93 NW3       29.97S
SELINSGROVE    CLEAR     57  57 100 CALM      29.96F FOG
FT INDIANTOWN  CLOUDY    70  62  77 E3        29.93S
CAPITAL CITY   CLOUDY    67  62  84 CALM      29.93F
HARRISBURG     CLOUDY    69  65  86 NW7       29.92F
YORK           CLOUDY    64  63  96 W3        29.93F
$$

PAZ038>040-043-044-047-048-054-055-060>062-067>071-200800-
EASTERN PENNSYLVANIA

CITY           SKY/WX    TMP DP  RH WIND       PRES   REMARKS
SCRANTON       MOCLDY    62  60  93 E3        29.96F
MOUNT POCONO   CLOUDY    63  59  87 N9        29.98S
ALLENTOWN      CLOUDY    72  61  68 N9        29.90F
QUAKERTOWN*    CLOUDY    70  63  78 N9        29.90S
READING        CLOUDY    69  65  86 CALM      29.91S
LANCASTER      CLOUDY    72  63  73 N8        29.91F
COATESVILLE    CLOUDY    70  63  78 N10       29.92S
POTTSTOWN      MOCLDY    68  64  87 NW5       29.90F
BLUE BELL      CLOUDY    68  63  83 NW3       29.88S
DOYLESTOWN     CLOUDY    69  63  81 N10       29.86F
WILLOW GROVE   NOT AVBL
NORTH PHILA    MOCLDY    73  64  73 N14       29.85F
PHILADELPHIA   CLOUDY    71  63  75 N13       29.85S
$$




USA.gov is the U.S. government's official web portal to all federal, state and local government web resources and services.